AirNav   Everest Fuels
 
 1675 users online  

NH34 Brady Sullivan-Elm Helistop Heliport
Manchester, New Hampshire, USA

GOING TO MANCHESTER?


FAA INFORMATION EFFECTIVE 10 SEPTEMBER 2020

Location

FAA Identifier: NH34
Lat/Long: 42-59-32.6200N 071-27-55.2100W
42-59.543667N 071-27.920167W
42.9923944,-71.4653361
(estimated)
Elevation: 250 ft. / 76 m (estimated)
From city: 1 mile N of MANCHESTER, NH
Time zone: UTC -4 (UTC -5 during Standard Time)
Zip code: 03101

Heliport Operations

Heliport use: Private use. Permission required prior to landing
Activation date: 03/2018
Control tower: no
ARTCC: BOSTON CENTER
FSS: BANGOR FLIGHT SERVICE STATION
Attendance: 
Wind indicator: no
Segmented circle: no

Heliport Communications

WX ASOS at MHT (4 nm S): 119.55 (603-621-1766)
WX ASOS at CON (13 nm N): 132.325 (603-224-6558)
WX AWOS-3PT at ASH (13 nm S): 125.1 (603-578-0473)

Nearby radio navigation aids

VOR radial/distance  VOR name  Freq  Var
MHTr345/8.5MANCHESTER VOR/DME114.4015W
CONr176/14.5CONCORD VOR/DME112.9015W
LWMr328/22.2LAWRENCE VOR/DME112.5015W
PSMr275/28.3PEASE VOR/DME116.5016W
GDMr058/37.4GARDNER VOR/DME110.6014W
EENr086/38.2KEENE VORTAC109.4014W

 
NDB name  Hdg/Dist  Freq  Var  ID
EPSOM200/7.621616WCO -.-. ---
FITZY035/8.220915WMJ -- .---
ROLLINS260/31.126016WESG . ... --.

Heliport Services

Runway Information

Helipad H1

Dimensions: 20 x 20 ft. / 6 x 6 m
Surface: ROOF/TOP, in good condition
Latitude: 42-59.543667N
Longitude: 071-27.920167W
Elevation: 250.0 ft.
Traffic pattern: leftleft

Heliport Ownership and Management from official FAA records

Ownership: Privately-owned
Owner: BRADY SULLIVAN TOWER LLC
670 N COMMERCIAL ST, STE 303
MANCHESTER, NH 03101
Phone 603-622-6223
Manager: ANNE BILODEAU
670 N COMMERCIAL ST, STE 303
MANCHESTER, NH 03101
Phone 603-622-6223

Additional Remarks

FOR CD CTC BOSTON APCH AT 603-594-5551.

Instrument Procedures

There are no published instrument procedures at NH34.

Some nearby airports with instrument procedures:

KMHT - Manchester Airport (4 nm S)
KCON - Concord Municipal Airport (13 nm N)
KASH - Boire Field Airport (13 nm S)
KLWM - Lawrence Municipal Airport (22 nm SE)
KAFN - Jaffrey Airport-Silver Ranch (26 nm SW)
 
Loc | Ops | Rwys | IFR | FBO | Links
Com | Nav | Svcs | Stats | Notes
Aerial photo
No photo
 
Airport distance calculator
Flying to Brady Sullivan-Elm Helistop Heliport? Find the distance to fly.

From to NH34

Sunrise and sunset
Times for 30-Sep-2020
 Local
(UTC-4)
 Zulu
(UTC)
Morning civil twilight06:1610:16
Sunrise06:4410:44
Sunset18:2722:27
Evening civil twilight18:5522:55

Current date and time
Zulu (UTC)  30-Sep-2020 16:23:10
Local (UTC-4)  30-Sep-2020 12:23:10
 
METAR
KMHT 
4nm S 
301553Z 26010G19KT 10SM BKN070 BKN180 21/12 A2952 RMK AO2 SLP006 T02110122
KCON 
13nm N 
301551Z AUTO 25013G23KT 10SM FEW031 BKN080 20/13 A2952 RMK AO2 SLP995 T02000128
KASH 
14nm S 
301556Z 27011G18KT 240V300 10SM BKN034 BKN070 OVC095 21/14 A2955 RMK AO2 SLP010 T02110144
TAF
KMHT 
4nm S 
301414Z 3014/0112 28011G16KT P6SM BKN015 BKN023 OVC070 FM301600 22014G25KT P6SM BKN035 FM302100 26014KT P6SM FEW250
KCON 
13nm N 
301354Z 3014/0112 29009KT P6SM SCT013 SCT022 BKN028 FM301600 25012G25KT P6SM BKN035 FM302100 27015KT P6SM FEW250
NOTAMs
Click for the latest NOTAMs
NOTAMs are issued by the DoD/FAA and will open in a separate window not controlled by AirNav.

 

 
 

Would you like to see your business listed on this page?

 If your business provides an interesting product or service to pilots, flight crews, aircraft, or users of the Brady Sullivan-Elm Helistop Heliport, you should consider listing it here.  To start the listing process, click on the button below
 
Add a business
 

Other Pages about Brady Sullivan-Elm Helistop Heliport

Update a link
 
Copyright © AirNav, LLC. All rights reserved. Privacy Policy  Contact